Location: Haliburton Scout Reserve
(45.0900°N, 78.3200°W)
Time: 07:47:45
(UTC-04:00)

S-56A Canister/Altair - Pass Details

Date: 01 February 2023
Orbit: 639 x 2493 km, 38.9° (Epoch: 27 March)

Event Time Altitude Azimuth Distance (km) Brightness Sun altitude
Rises 13:43:32 0° 256° (WSW) 3,154 11.1 25.5°
Reaches altitude 10° 13:45:42 10° 251° (WSW) 2,358 10.7 25.4°
Maximum altitude 13:50:59 51° 176° (S) 1,229 9.8 25.0°
Drops below altitude 10° 13:58:37 10° 104° (ESE) 3,385 10.8 24.5°
Sets 14:02:18 0° 100° (E) 4,676 11.4 24.2°
